Regional Weather Roundup
Issued by NWS

Home | Current Version | Previous Version | Text Only | Print | Product List | Glossary Off
Versions: 1 2 3 4 5 6 7 8 9 10 11 12 13 14 15 16 17 18 19 20 21 22 23 24 25 26 27 28 29 30 31 32 33 34 35 36 37 38 39 40 41 42 43 44 45 46 47 48 49 50

000
ASUS43 KFSD 010110
RWRSD

WEATHER ROUNDUP FOR SOUTH DAKOTA
NATIONAL WEATHER SERVICE SIOUX FALLS SD
800 PM CDT FRI OCT 31 2014

NOTE: "FAIR" INDICATES FEW OR NO CLOUDS BELOW 12,000 FEET WITH NO
SIGNIFICANT WEATHER AND/OR OBSTRUCTIONS TO VISIBILITY.


SDZ001>005-009-010-012>017-010200-
NORTHWEST AND NORTH CENTRAL SOUTH DAKOTA

CITY           SKY/WX    TMP DP  RH WIND       PRES   REMARKS
BUFFALO          N/A     44  24  45 SE21G28   29.89F
FAITH            N/A     41  11  29 SE28G39   30.04F
MOBRIDGE       CLEAR     38  16  40 SE23G37   30.18F
$$

SDZ012>016-024>037-041>051-057-063-072>074-010200-
SOUTHWEST AND SOUTH CENTRAL SOUTH DAKOTA

CITY           SKY/WX    TMP DP  RH WIND       PRES   REMARKS
RAPID CTY ARPT PTCLDY    45  28  51 S21       30.04F
PIERRE         PTCLDY    37  14  38 SE22G30   30.23F
CUSTER         MOCLDY    37  28  70 CALM      30.05F
ELLSWORTH AFB  PTCLDY    46  29  52 S25G32    30.01F
PHILIP         CLEAR     44  15  31 SE16      30.14F
PINE RIDGE     CLEAR     45  24  43 S21G37    30.06F
SPEARFISH      FAIR      41  34  75 SW5       29.92F
WINNER         FAIR      40  10  29 SE17      30.26F
$$

SDZ004>011-016>023-039-040-010200-
NORTHEAST SOUTH DAKOTA

CITY           SKY/WX    TMP DP  RH WIND       PRES   REMARKS
ABERDEEN       PTCLDY    26  16  65 SE8       30.35F WCI  18
WATERTOWN      PTCLDY    30  17  58 SE6       30.38F WCI  24
SISSETON         N/A     28  21  75 S8        30.41F WCI  20
$$

SDZ017-020-022-023-036>040-048>070-010200-
SOUTHEAST SOUTH DAKOTA

CITY           SKY/WX    TMP DP  RH WIND       PRES   REMARKS
SIOUX FALLS    PTCLDY    32  17  54 SE7       30.43F WCI  26
HURON          PTCLDY    33  17  51 SE9       30.37F WCI  25
CHAMBERLAIN    CLEAR     32  17  52 SE15      30.30F WCI  22
MITCHELL       PTCLDY    35  17  47 SE14      30.40F WCI  26
YANKTON        PTCLDY    34  18  51 E6        30.43F WCI  29
$$

ABBREVIATIONS USED IN REMARKS
   TC - TEMPERATURE IN CELSIUS
  WCI - WIND CHILL INDEX
   HX - HEAT INDEX
  VSB - VISIBILITY




USA.gov is the U.S. government's official web portal to all federal, state and local government web resources and services.